Location: Trebic
(49.2170°N, 15.8830°E)
Time: 13:28:26
(UTC+02:00)

Transit 2A Rocket - Pass Details

Date: 31 July 2019
Orbit: 590 x 913 km, 66.7° (Epoch: 20 August)

Event Time Altitude Azimuth Distance (km) Brightness Sun altitude
Rises 08:55:55 0° 326° (NW) 3,203 7.9 32.1°
Reaches altitude 10° 08:58:37 10° 335° (NNW) 2,218 7.2 32.5°
Maximum altitude 09:03:09 33° 40° (NE) 1,131 6.6 33.3°
Drops below altitude 10° 09:07:20 10° 106° (ESE) 2,036 8.7 33.9°
Sets 09:09:42 0° 116° (ESE) 2,902 9.0 34.3°
